Date,TemperatureHighF,TemperatureAvgF,TemperatureLowF,DewpointHighF,DewpointAvgF,DewpointLowF,HumidityHigh,HumidityAvg,HumidityLow,PressureMaxIn,PressureMinIn,WindSpeedMaxMPH,WindSpeedAvgMPH,GustSpeedMaxMPH,PrecipitationSumIn
2013-1-1,3.4,-2.3,-3.6,-6.1,-12.1,-13.4,65,62,61,30.25,30.09,10,1,10,0.00
2013-1-2,32.2,17.8,0.9,26.8,11.6,-8.2,93,77,65,30.13,29.99,20,7,20,0.00
2013-1-3,28.6,18.3,6.3,26.8,11.4,-1.4,93,75,56,30.33,30.13,16,7,17,0.00
2013-1-4,34.7,20.2,7.2,25.7,13.4,0.6,85,75,66,30.25,30.11,24,5,26,0.00
2013-1-5,39.4,23.7,11.8,33.8,18.6,7.5,87,81,76,30.12,29.90,30,9,30,0.00
2013-1-6,29.5,17.7,13.3,20.2,11.1,7.1,80,75,67,30.25,30.08,14,6,14,0.01
2013-1-7,43.0,30.2,16.0,34.2,24.3,10.2,87,79,70,30.13,29.95,30,8,30,0.00
2013-1-8,41.9,29.6,17.8,36.8,26.3,15.1,92,87,80,30.05,29.81,19,5,20,0.00
2013-1-9,46.4,33.6,26.4,37.9,29.7,23.6,91,86,70,30.40,30.05,17,5,17,0.00
2013-1-10,28.6,26.2,24.4,26.0,23.2,20.4,90,88,86,30.34,30.26,5,1,6,0.00
2013-1-11,46.6,43.4,24.3,45.0,41.3,20.4,100,92,85,30.26,29.40,24,13,26,0.02
2013-1-12,36.3,21.0,10.2,34.5,12.7,-0.2,93,70,62,30.08,29.58,26,10,28,0.00
2013-1-13,14.4,9.7,4.5,4.6,-1.7,-4.7,68,60,56,30.16,30.02,12,5,12,0.00
2013-1-14,29.5,16.6,5.0,15.1,5.9,-3.4,75,63,47,30.41,30.15,15,3,16,0.00
2013-1-15,34.0,21.7,12.4,19.6,11.1,3.8,73,64,49,30.32,29.99,13,6,14,0.00
2013-1-16,46.6,31.4,17.6,38.0,24.6,8.8,88,76,67,30.18,29.84,16,8,17,0.00
2013-1-17,38.7,25.3,14.2,27.5,16.7,5.9,85,70,49,30.42,30.18,8,1,9,0.00
2013-1-18,52.0,37.9,22.6,38.7,30.9,18.5,87,77,59,30.27,29.83,25,11,27,0.00
2013-1-19,51.4,37.8,14.9,38.0,28.5,1.6,82,69,54,30.26,29.77,17,8,18,0.00
2013-1-20,18.7,11.1,0.9,7.3,-0.2,-10.2,66,60,55,30.38,30.25,10,2,11,0.00
2013-1-21,11.8,2.6,-6.9,-6.9,-13.9,-23.6,63,46,33,30.40,30.30,16,5,17,0.00
2013-1-22,21.4,10.7,-0.4,-0.5,-7.2,-12.4,59,45,33,30.38,30.25,8,1,8,0.00
2013-1-23,27.3,14.6,0.0,16.6,2.5,-17.4,69,58,43,30.50,30.12,10,6,11,0.00
2013-1-24,17.1,7.6,-1.3,-7.2,-12.8,-18.2,50,39,33,30.54,30.16,14,7,15,0.00
2013-1-25,38.7,23.2,10.4,26.5,10.3,-7.2,71,58,33,30.26,30.04,14,5,15,0.00
2013-1-26,35.4,19.8,4.5,15.9,4.0,-5.9,65,51,33,30.30,30.08,14,5,14,0.00
2013-1-27,35.1,32.8,29.5,35.1,29.2,15.3,100,88,54,30.08,29.71,15,3,16,0.04
2013-1-28,41.2,36.0,33.4,41.2,36.0,33.4,100,100,100,29.89,29.53,13,3,14,0.00
2013-1-29,38.8,34.2,28.4,38.8,33.9,27.2,100,99,95,29.66,29.50,14,4,15,0.02
2013-1-30,28.6,21.1,10.8,27.3,16.9,2.7,95,84,70,29.85,29.53,15,8,16,0.00
2013-1-31,12.7,4.3,-3.8,2.4,-8.1,-18.6,69,56,46,30.33,29.85,19,7,20,0.02
2013-2-1,23.2,6.6,-9.2,15.5,-5.7,-21.4,72,57,33,30.35,29.99,20,7,21,0.00
2013-2-2,30.7,23.4,13.1,26.7,12.4,4.8,86,63,46,30.16,29.97,18,5,19,0.00
2013-2-3,35.8,26.2,13.6,25.5,17.4,6.4,82,70,56,30.13,29.74,15,7,16,0.00
2013-2-4,32.7,23.9,17.1,26.9,16.9,10.5,80,74,63,30.00,29.71,9,4,10,0.00
2013-2-5,49.5,32.2,21.0,39.4,26.3,16.3,88,79,67,30.08,29.75,15,4,16,0.00
2013-2-6,44.4,33.7,25.2,38.6,30.6,22.4,97,89,78,30.08,29.87,14,4,14,0.00
2013-2-7,35.1,30.9,25.5,32.7,28.7,22.5,96,91,88,30.19,29.86,10,4,10,0.04
2013-2-8,28.9,25.0,21.9,24.1,21.1,17.7,89,85,80,30.32,30.18,18,5,20,0.00
2013-2-9,37.2,30.6,25.3,33.1,27.9,22.3,97,90,84,30.20,29.76,25,12,27,0.04
2013-2-10,48.2,36.2,30.6,47.8,34.4,24.5,100,93,78,29.77,29.25,41,16,43,0.45
2013-2-11,32.7,29.1,26.1,24.7,21.9,19.5,78,74,70,30.10,29.60,25,10,27,0.04
2013-2-12,46.6,32.7,19.4,32.7,24.1,14.1,84,71,52,30.11,29.85,15,5,16,0.00
2013-2-13,47.8,37.3,22.8,36.6,29.5,18.1,87,74,65,29.86,29.66,11,5,12,0.00
2013-2-14,45.3,33.1,19.9,34.6,23.7,9.7,77,68,60,30.18,29.90,15,6,16,0.00
2013-2-15,33.1,21.6,14.0,20.0,8.9,-1.9,71,58,33,30.30,30.18,8,2,8,0.00
2013-2-16,38.8,24.6,8.8,20.2,11.9,0.7,76,60,33,30.27,30.04,11,2,12,0.00
2013-2-17,34.7,19.7,18.3,22.6,11.1,7.1,78,69,61,30.04,29.62,16,6,17,0.00
2013-2-18,40.3,29.2,19.2,35.1,21.8,7.9,89,74,60,29.86,29.55,16,5,17,0.00
2013-2-19,19.2,11.4,3.6,8.3,-4.0,-13.6,62,51,33,30.34,29.86,14,7,15,0.00
2013-2-20,21.4,11.5,-2.0,4.8,-7.3,-18.4,59,43,33,30.39,30.23,12,3,12,0.00
2013-2-21,22.8,18.9,14.7,18.6,10.8,3.6,91,71,53,30.27,29.81,22,10,23,0.00
2013-2-22,36.3,28.4,17.8,32.8,22.4,15.3,94,80,56,29.96,29.76,14,6,15,0.00
2013-2-23,37.0,19.0,3.6,25.5,8.0,-4.6,75,63,34,29.96,29.85,9,2,9,0.00
2013-2-24,44.2,25.9,8.4,28.3,17.7,1.8,84,72,51,30.05,29.89,7,1,8,0.00
2013-2-25,45.0,33.4,28.0,34.5,28.4,24.7,90,82,65,30.06,29.89,7,0,8,0.00
2013-2-26,33.8,29.2,26.2,29.5,25.8,22.3,93,87,81,29.89,29.72,10,6,10,0.02
2013-2-27,34.2,27.9,21.4,26.5,22.7,15.7,88,81,71,29.99,29.78,50,6,53,0.02
2013-2-28,40.3,27.6,19.8,28.9,21.0,14.7,84,76,62,30.15,29.99,9,4,10,0.00
2013-3-1,36.9,26.4,22.1,25.6,18.8,13.0,84,73,59,30.30,30.13,8,3,8,0.00
2013-3-2,44.6,26.4,14.0,22.9,14.0,-5.9,77,61,40,30.30,30.12,6,0,6,0.00
2013-3-3,35.1,26.5,15.4,23.7,18.1,8.9,79,71,61,30.12,29.84,18,9,19,0.00
2013-3-4,38.1,31.8,26.4,31.7,27.5,-7.4,94,84,14,29.94,29.75,17,8,18,0.00
2013-3-5,37.0,29.2,22.1,31.2,23.3,16.0,94,78,69,30.28,29.92,15,7,16,0.00
2013-3-6,36.3,28.4,21.4,24.5,19.4,16.2,82,69,56,30.39,30.27,8,1,9,0.00
2013-3-7,29.8,29.8,29.8,19.1,19.1,19.1,64,64,64,30.31,30.31,0,0,0,0.00
2013-3-8,35.2,30.5,29.8,33.4,20.9,19.1,93,68,64,30.31,29.99,14,1,15,0.04
2013-3-9,41.5,37.7,34.3,41.5,37.5,33.3,100,99,93,29.99,29.66,23,8,24,0.43
2013-3-10,37.8,32.1,-22.0,37.8,32.0,-22.0,100,100,98,29.79,29.64,17,4,18,0.26
2013-3-11,41.7,27.9,18.5,29.6,21.7,10.3,97,79,54,29.92,29.74,0,0,0,0.00
2013-3-12,40.5,26.4,16.3,30.0,18.4,10.0,85,72,60,30.23,29.92,12,2,12,0.02
2013-3-13,20.8,18.9,16.9,12.9,11.3,9.4,72,72,71,30.28,30.23,8,3,9,0.00
2013-3-14,56.3,48.0,36.0,38.8,35.9,30.4,80,64,50,30.09,30.04,12,1,12,0.00
2013-3-15,37.8,35.7,34.7,34.5,33.2,32.3,93,91,88,29.81,29.74,8,3,8,0.00
2013-3-16,35.1,33.0,32.5,33.5,30.9,30.2,96,92,91,30.00,29.79,9,7,9,0.00
2013-3-17,39.4,28.9,19.6,30.2,21.3,12.9,91,73,63,30.15,29.81,18,9,20,0.00
2013-3-18,42.4,30.4,19.8,32.4,22.3,9.9,96,73,54,29.97,29.69,25,8,27,0.00
2013-3-19,39.9,27.5,14.9,22.3,12.0,0.5,74,54,33,30.23,29.97,18,4,19,0.00
2013-3-20,33.4,22.9,12.6,15.0,5.8,-4.3,73,50,33,30.32,30.10,15,5,16,0.00
2013-3-21,34.0,22.6,10.6,15.7,6.9,0.1,70,52,33,30.11,29.93,13,4,13,0.00
2013-3-22,31.1,24.4,19.6,23.6,17.2,12.1,76,74,70,30.04,30.01,5,1,5,0.00
2013-3-23,37.6,30.9,25.5,24.3,21.7,18.9,83,69,50,30.11,29.99,13,4,13,0.00
2013-3-24,31.5,28.0,24.4,27.2,23.6,19.6,92,83,76,30.02,29.90,12,6,12,0.00
2013-3-25,36.3,30.1,24.3,25.7,23.3,20.2,92,77,63,30.25,29.96,12,6,13,0.04
2013-3-26,46.0,32.8,18.3,28.2,19.3,11.6,79,59,33,30.31,30.23,12,2,12,0.02
2013-3-27,47.5,36.2,21.9,31.5,25.6,16.4,83,66,46,30.30,30.20,13,2,14,0.00
2013-3-28,57.6,41.6,26.1,38.6,31.8,22.4,89,70,47,30.27,30.17,13,3,14,0.00
2013-3-29,63.3,49.8,30.2,42.9,37.2,27.6,92,64,43,30.25,30.10,17,5,18,0.00
2013-3-30,61.0,51.4,41.4,54.1,45.5,36.9,100,81,51,30.10,29.85,15,4,16,0.08
2013-3-31,57.7,42.8,30.9,45.1,35.5,23.3,100,77,48,30.09,29.88,15,5,16,0.00
2013-4-1,41.4,31.6,20.7,24.2,18.4,13.1,77,59,35,30.28,30.09,10,4,11,0.00
2013-4-2,52.2,36.5,19.8,31.7,21.8,13.6,81,58,33,30.31,30.25,13,2,13,0.00
2013-4-3,54.0,37.9,23.2,31.8,25.5,19.1,87,63,33,30.36,30.20,15,5,16,0.00
2013-4-4,66.9,47.1,27.1,45.5,32.9,19.3,79,59,43,30.21,30.02,18,5,20,0.00
2013-4-5,61.0,46.9,28.6,40.5,32.9,24.9,92,62,33,30.17,29.77,229,8,229,0.00
2013-4-6,69.3,56.8,45.3,53.3,45.3,39.8,82,66,54,29.78,29.56,26,10,28,0.04
2013-4-7,66.6,48.9,31.8,48.9,41.0,30.3,100,77,52,29.91,29.66,20,5,21,0.00
2013-4-8,66.0,50.5,44.8,55.4,41.7,24.2,95,74,44,29.77,29.66,16,3,18,0.00
2013-4-9,58.6,49.2,39.6,55.0,49.1,39.4,100,100,87,29.95,29.70,28,14,28,0.59
2013-4-10,40.3,38.3,36.3,40.3,38.3,36.3,100,100,100,29.94,29.72,27,6,29,0.42
2013-4-11,41.0,37.7,35.2,40.1,37.3,35.1,100,98,93,29.72,29.58,20,7,21,0.22
2013-4-12,43.5,36.1,32.9,38.2,32.9,27.5,100,89,74,29.94,29.60,19,8,20,0.00
2013-4-13,58.3,43.8,28.6,41.5,33.7,25.4,89,69,51,29.99,29.81,16,6,17,0.00
2013-4-15,44.6,40.2,35.6,38.2,34.8,31.1,84,81,77,30.05,29.93,8,1,8,0.00
2013-4-16,52.2,42.7,32.5,41.9,36.3,29.7,94,79,63,30.22,30.04,10,4,10,0.00
2013-4-17,50.0,41.6,39.6,42.1,40.1,38.1,100,95,71,30.17,29.61,34,8,34,1.32
2013-4-18,39.7,36.3,35.2,39.7,36.3,35.0,100,100,99,29.77,29.58,21,8,22,0.34
2013-4-19,49.6,38.1,28.2,35.7,29.9,24.3,99,73,55,30.06,29.58,28,10,29,0.00
2013-4-20,52.2,40.0,23.7,36.8,27.4,19.5,87,63,33,30.25,30.06,14,4,14,0.00
2013-4-21,69.3,52.8,39.4,51.7,41.6,30.5,97,68,36,30.20,30.02,31,13,33,0.43
2013-4-22,66.6,51.8,34.5,56.2,49.0,34.0,100,91,64,30.13,29.88,28,5,28,0.38
2013-4-23,43.0,35.4,31.1,36.8,31.0,25.7,98,84,69,30.15,30.06,13,8,14,0.00
2013-4-24,57.4,44.4,25.2,38.7,32.2,21.8,90,65,41,30.13,29.99,30,9,30,0.00
2013-4-25,53.1,47.1,30.6,41.0,36.5,27.4,90,68,59,30.22,30.13,10,7,10,0.00
2013-4-26,72.7,58.7,45.0,54.2,47.3,35.1,86,67,51,30.22,30.04,31,14,32,0.04
2013-4-27,74.7,62.2,42.3,55.7,50.3,41.7,100,69,48,30.19,30.02,13,2,13,0.00
2013-4-28,81.0,65.2,44.8,57.4,51.9,43.3,97,66,43,30.02,29.72,23,9,24,0.00
2013-4-29,83.7,69.3,54.0,63.9,58.3,51.3,99,70,47,29.76,29.52,23,6,24,0.00
2013-4-30,87.3,73.3,56.5,63.5,56.6,47.5,78,58,40,29.89,29.51,31,13,31,0.59
2013-5-1,56.8,45.9,34.9,48.8,41.2,34.4,100,84,72,30.34,29.87,20,12,20,0.24
2013-5-2,37.0,34.7,32.2,36.5,33.0,31.5,100,94,82,30.43,30.30,18,4,19,0.67
2013-5-3,34.7,33.5,32.9,33.8,32.5,31.1,100,96,92,30.33,29.97,229,8,229,0.00
2013-5-4,43.7,37.9,32.7,43.7,37.9,32.7,100,100,100,30.07,29.89,14,7,15,0.12
2013-5-5,57.9,48.7,41.4,55.0,48.0,41.4,100,98,87,30.11,30.04,9,2,10,0.02
2013-5-6,79.0,61.5,44.6,63.3,53.8,44.6,100,78,48,30.10,30.00,8,0,8,0.00
2013-5-7,83.3,67.7,49.6,60.6,54.1,47.8,95,65,42,30.06,29.95,10,2,11,0.00
2013-5-8,77.9,63.1,52.3,61.0,56.5,48.9,100,81,54,29.99,29.91,18,5,19,0.59
2013-5-9,76.1,61.1,52.7,65.4,58.8,52.5,100,93,66,29.95,29.84,16,4,18,1.75
2013-5-10,70.5,57.5,46.4,58.4,51.8,46.2,100,83,57,30.04,29.94,13,4,13,0.00
2013-5-11,68.2,53.9,41.4,49.5,38.6,28.7,88,58,38,30.20,29.95,18,8,19,0.00
2013-5-12,65.8,49.7,34.3,41.6,33.3,27.1,79,56,33,30.25,30.19,10,3,11,0.00
2013-5-13,67.5,67.0,66.7,38.1,37.7,37.5,34,34,34,30.19,30.19,9,8,9,0.00
2013-5-19,89.4,74.4,61.5,73.0,63.1,59.7,100,73,41,29.89,29.55,28,12,29,0.61
2013-5-20,79.2,69.0,59.2,66.5,62.3,59.2,100,81,60,29.66,29.53,28,12,29,0.04
2013-5-21,73.8,64.8,58.6,61.4,55.4,19.8,94,73,53,29.67,29.56,27,12,29,0.00
2013-5-22,68.4,59.6,54.1,59.7,54.9,50.9,99,85,66,29.90,29.64,15,7,16,0.00
2013-5-23,71.8,61.0,52.3,56.6,50.9,43.0,100,73,43,30.25,29.90,15,5,16,0.00
2013-5-24,73.8,62.5,45.5,54.6,50.2,43.0,93,66,47,30.31,30.11,26,9,28,0.02
2013-5-25,62.8,55.9,52.5,59.6,54.5,-22.0,100,95,78,30.22,30.06,30,14,31,0.55
2013-5-26,61.5,55.1,51.6,61.5,55.1,51.6,100,100,99,30.14,29.84,22,12,23,0.83
2013-5-27,81.7,66.5,56.3,68.3,62.4,56.3,100,88,61,29.99,29.64,35,6,35,8.18
2013-5-28,87.8,73.8,61.0,71.7,67.1,61.0,100,82,55,29.75,29.56,26,3,28,0.29
2013-5-29,77.9,68.5,62.8,74.4,66.9,61.9,100,95,81,29.77,29.62,31,8,31,0.61
2013-5-30,72.1,67.6,61.7,69.1,65.1,59.0,100,92,79,29.67,29.55,34,12,34,0.40
2013-5-31,84.0,72.1,59.9,68.1,63.6,58.3,100,77,49,29.69,29.60,24,11,25,0.22
2013-6-1,74.7,63.1,55.0,64.5,57.5,51.8,93,82,55,29.94,29.61,16,8,17,0.08
2013-6-2,70.7,60.5,52.7,55.0,51.1,45.7,91,72,55,30.07,29.93,10,2,11,0.00
2013-6-3,74.7,64.8,47.7,57.1,52.4,46.9,99,67,49,30.06,29.90,19,6,20,0.00
2013-6-4,68.7,61.9,55.6,65.0,59.1,53.5,100,91,79,30.06,29.91,25,9,27,1.82
2013-6-5,76.1,65.6,57.6,65.3,60.3,53.8,100,84,58,29.99,29.92,8,0,8,0.14
2013-6-6,74.3,63.4,54.1,62.6,56.6,52.7,99,80,61,29.99,29.90,8,1,9,0.00
2013-6-7,77.5,63.8,51.4,61.6,54.6,50.6,100,75,50,30.02,29.91,7,0,8,0.00
2013-6-8,72.0,63.1,51.6,63.5,58.0,50.8,100,84,61,29.92,29.73,20,7,21,0.57
2013-6-9,74.7,66.1,61.7,67.6,63.5,61.5,100,92,75,29.76,29.69,18,10,20,0.12
2013-6-10,83.8,69.7,59.2,70.0,64.6,59.2,100,85,59,29.89,29.76,11,1,12,0.00
2013-6-11,88.0,75.5,63.7,75.5,70.0,63.4,100,84,62,29.88,29.69,21,3,22,0.00
2013-6-12,95.0,79.0,65.3,78.8,70.7,56.8,100,78,54,29.91,29.64,20,7,21,0.04
2013-6-13,65.7,64.4,62.6,58.6,57.9,56.8,86,80,74,29.97,29.91,8,2,9,0.00
2013-6-14,77.4,70.4,66.0,68.7,66.9,63.5,100,89,71,30.01,29.83,46,12,46,1.44
2013-6-15,86.2,75.2,63.5,75.9,69.0,63.2,100,82,65,29.94,29.84,24,6,26,0.20
2013-6-16,91.0,79.0,66.6,73.5,65.3,58.0,100,67,37,29.97,29.91,12,1,13,0.00
2013-6-17,96.4,81.2,63.0,70.7,63.2,56.6,90,58,33,29.99,29.90,15,0,16,0.00
2013-6-18,90.5,78.2,63.7,68.3,61.9,56.8,85,60,41,30.02,29.95,8,0,9,0.00
2013-6-19,88.5,76.9,63.5,69.7,65.6,62.1,100,71,45,30.04,29.95,18,4,20,0.00
2013-6-20,89.8,75.4,67.3,77.4,66.6,55.9,92,75,65,30.51,29.89,22,10,24,0.28
2013-6-21,91.0,81.9,74.3,77.5,73.8,69.1,90,77,58,30.05,29.82,25,10,27,0.32
2013-6-22,94.6,83.2,71.2,76.0,71.4,64.0,81,69,49,30.02,29.82,20,8,21,0.04
2013-6-23,88.7,77.9,67.6,74.4,70.4,64.2,95,78,60,29.96,29.72,23,6,24,0.26
2013-6-24,82.4,73.6,68.7,76.0,70.5,64.9,100,91,73,29.96,29.79,33,6,33,0.20
2013-6-25,90.9,79.2,71.1,77.4,73.7,70.2,100,85,57,29.81,29.70,18,4,19,0.18
2013-6-26,97.7,85.4,71.4,82.0,73.7,67.2,100,71,43,29.87,29.65,15,2,16,0.06
2013-6-27,92.7,79.1,68.2,75.4,68.4,64.1,93,71,46,29.97,29.86,16,3,17,0.02
2013-6-28,92.8,81.8,68.5,68.0,62.7,55.4,86,55,33,29.91,29.81,21,4,22,0.00
2013-6-29,87.4,72.8,64.8,67.4,60.6,56.9,87,66,47,29.92,29.79,14,4,14,0.04
2013-6-30,80.1,69.9,58.5,62.2,56.5,51.0,96,65,42,30.08,29.91,14,2,15,0.00
2013-7-1,88.0,73.1,55.2,65.5,56.4,50.9,88,58,39,30.14,30.08,18,3,20,0.00
2013-7-2,86.5,75.1,58.6,63.8,57.1,51.4,84,55,44,30.13,30.03,7,0,8,0.00
2013-7-3,79.0,69.1,63.3,62.4,53.2,48.3,58,57,52,30.65,30.01,7,0,7,0.00
2013-7-4,79.0,67.8,63.1,75.1,52.2,38.4,90,60,40,30.58,29.99,19,3,20,0.00
2013-7-5,71.6,64.3,63.5,61.9,49.0,42.3,92,60,43,30.06,29.90,15,5,16,0.00
2013-7-6,92.8,80.4,63.5,81.6,67.8,55.4,85,67,47,30.64,29.84,14,4,15,0.00
2013-7-7,92.8,77.8,72.3,85.0,67.6,52.8,80,72,48,30.64,29.87,18,5,19,0.00
2013-7-8,96.8,88.5,84.9,78.5,76.5,67.5,81,69,56,29.94,29.87,10,1,11,0.00
2013-7-9,94.3,80.4,74.3,76.2,63.2,57.6,56,56,56,30.53,29.87,12,3,12,0.00
2013-7-10,88.5,79.1,68.5,65.3,60.7,57.6,70,54,41,30.07,29.87,8,0,9,0.00
2013-7-11,68.5,65.0,62.1,59.0,57.8,56.7,85,78,71,30.08,30.05,0,0,0,0.00
2013-7-14,84.9,76.1,70.2,65.9,65.2,64.0,84,70,53,30.17,30.08,8,1,8,0.00
2013-7-15,91.0,80.4,64.2,73.7,69.7,62.8,98,72,55,30.21,30.12,14,4,15,0.00
2013-7-16,102.0,86.3,69.4,77.7,73.4,69.4,100,69,43,30.25,30.17,10,0,10,0.00
2013-7-17,104.7,88.7,70.7,79.4,73.3,68.8,95,63,40,30.28,30.16,14,0,15,0.00
2013-7-18,102.2,88.2,72.7,77.6,72.6,69.5,93,63,42,30.17,29.92,15,5,16,0.00
2013-7-19,102.6,86.2,72.0,77.9,70.1,63.0,83,61,37,29.92,29.84,15,5,16,0.00
2013-7-20,94.6,80.6,61.0,70.4,64.5,57.8,91,61,37,29.99,29.86,8,0,9,0.00
2013-7-21,83.3,73.5,63.3,72.4,67.4,60.6,99,82,64,29.92,29.81,15,2,16,0.00
2013-7-22,102.7,84.3,63.9,79.4,72.3,63.9,100,72,44,29.84,29.67,15,3,16,0.77
2013-7-23,81.3,71.0,62.4,69.4,64.3,61.2,97,81,57,29.99,29.82,15,1,16,0.02
2013-7-24,89.8,74.6,56.7,67.9,62.9,55.2,99,70,45,30.07,29.99,8,0,9,0.00
2013-7-25,92.3,78.5,61.2,71.5,66.3,59.8,97,69,49,30.04,29.93,16,4,17,0.00
2013-7-26,87.3,74.3,59.0,72.3,61.8,52.8,100,68,42,30.06,29.94,13,1,13,0.00
2013-7-27,80.1,66.6,52.0,58.0,52.3,47.1,92,63,40,30.09,29.99,12,0,13,0.00
2013-7-28,87.3,65.6,50.2,59.1,52.4,46.7,90,66,33,30.06,29.99,14,1,14,0.00
2013-7-29,79.7,66.6,52.5,64.9,58.5,50.3,98,77,51,30.10,30.04,14,2,14,0.00
2013-7-30,74.8,67.7,63.3,70.2,66.6,62.7,100,96,82,30.08,30.02,10,1,11,0.12
2013-7-31,91.8,79.4,61.2,83.1,70.4,61.2,100,77,47,30.12,30.04,13,0,14,0.00
2013-8-1,96.3,79.6,59.4,83.1,65.6,58.3,98,66,33,30.08,29.90,228,2,228,0.00
2013-8-2,91.6,78.5,65.1,72.6,66.5,62.8,97,69,52,30.52,29.89,9,1,10,0.00
2013-8-3,85.6,73.5,59.9,65.8,61.1,24.4,100,68,44,30.18,29.99,10,1,11,0.00
2013-8-4,88.0,73.0,54.3,64.4,60.3,52.6,96,67,43,30.18,30.03,22,3,23,0.00
2013-8-5,91.0,75.9,63.7,75.4,68.8,62.3,100,80,56,30.03,29.79,16,2,17,0.02
2013-8-6,85.1,77.4,64.2,77.1,68.8,64.2,100,77,53,29.91,29.78,10,1,10,0.00
2013-8-7,85.6,77.3,66.2,70.5,66.9,62.8,97,72,53,30.01,29.78,6,0,6,0.00
2013-8-8,86.9,73.6,57.9,68.0,63.9,57.6,100,74,50,30.03,29.95,7,0,8,0.00
2013-8-9,87.8,75.5,62.8,71.9,64.7,60.6,99,72,45,30.10,30.00,6,0,6,0.00
2013-8-10,92.8,76.5,56.8,67.1,62.4,54.8,95,65,41,30.19,30.07,9,0,10,0.00
2013-8-11,93.9,77.8,61.0,72.3,66.3,58.8,99,71,47,30.10,29.97,16,3,17,0.24
2013-8-12,87.3,74.6,63.5,74.1,66.7,57.7,100,79,52,30.06,29.99,8,0,9,0.04
2013-8-13,84.9,69.4,55.6,67.8,59.6,53.9,96,73,46,30.16,30.05,9,0,10,0.00
2013-8-14,83.5,69.3,54.5,63.1,57.3,52.6,100,69,41,30.21,30.10,9,0,10,0.00
2013-8-15,63.1,61.9,61.2,59.5,57.8,56.6,89,86,84,30.12,30.09,4,0,4,0.00
2013-8-18,88.7,78.4,61.2,63.2,61.4,56.6,85,57,42,30.10,30.05,9,2,9,0.00
2013-8-19,72.3,59.2,58.3,60.3,57.3,56.4,96,94,66,30.07,30.05,0,0,0,0.00
2013-8-20,94.1,82.2,58.3,73.5,68.8,56.0,96,67,51,30.73,29.92,19,6,20,0.00
2013-8-21,98.4,84.1,70.0,73.8,70.2,66.4,94,66,43,29.99,29.92,15,5,16,0.00
2013-8-22,90.9,78.6,68.4,74.5,70.0,66.2,96,77,54,30.09,29.97,14,1,15,0.00
2013-8-23,91.6,77.3,63.1,77.5,71.1,63.1,100,83,59,30.10,30.00,14,3,15,0.00
2013-8-24,93.4,81.2,70.5,77.4,72.4,69.7,100,77,52,30.11,30.02,16,3,18,0.00
2013-8-25,88.9,84.0,72.0,74.0,72.4,68.6,91,69,61,30.13,30.06,16,8,17,0.00
2013-8-26,88.9,73.9,73.0,73.7,70.7,69.5,92,90,61,30.12,30.06,10,1,12,0.00
2013-8-27,102.6,87.9,73.0,77.2,72.7,65.4,92,63,44,30.06,29.87,15,8,16,0.00
2013-8-28,100.4,100.4,100.4,75.2,75.2,75.2,45,45,45,29.87,29.87,14,14,14,0.00
2013-9-2,100.4,100.4,100.4,75.2,75.2,75.2,45,45,45,29.87,29.87,14,14,14,0.00
2013-9-3,88.0,76.6,65.8,64.3,62.2,60.6,85,63,42,30.04,29.87,14,0,15,0.00
2013-9-4,95.7,78.2,59.4,70.3,65.1,58.0,97,68,39,30.14,30.02,122,1,183,0.00
2013-9-5,95.0,80.7,68.7,74.5,68.9,65.8,97,70,45,30.19,30.10,8,0,9,0.00
2013-9-6,93.6,80.4,65.8,70.0,66.8,63.6,96,67,42,30.11,29.92,15,2,16,0.00
2013-9-7,97.7,81.7,71.2,75.4,70.2,64.8,89,70,47,29.94,29.84,12,2,13,0.00
2013-9-8,75.7,73.8,68.4,72.9,69.0,62.9,100,85,70,29.94,29.82,14,4,15,0.00
2013-9-9,102.6,84.6,67.8,74.3,69.2,62.9,100,65,35,29.85,29.77,20,4,20,0.00
2013-9-10,99.3,83.0,69.3,72.2,67.9,62.1,91,63,41,29.99,29.85,21,5,22,0.10
2013-9-11,93.4,79.0,69.4,76.4,69.3,63.3,99,75,46,30.09,29.99,10,0,10,0.02
2013-9-12,81.5,71.2,58.1,63.7,54.9,49.0,92,60,35,30.20,30.06,10,1,10,0.00
2013-9-13,59.2,55.0,51.4,50.0,48.4,46.1,85,78,71,30.18,30.09,2,0,2,0.00
2013-9-14,79.5,65.1,45.5,54.7,49.6,43.8,96,62,33,30.10,29.88,16,3,17,0.00
2013-9-15,77.5,67.0,59.7,65.5,57.7,53.1,84,72,63,30.23,29.83,16,4,17,0.00
2013-9-16,71.8,60.2,50.9,60.4,54.2,50.9,100,82,56,30.32,30.21,15,4,16,0.00
2013-9-17,66.2,59.8,53.8,66.0,59.6,52.7,100,99,93,30.23,29.94,14,6,15,0.69
2013-9-18,91.8,77.9,64.8,74.5,69.8,64.8,100,79,52,29.95,29.72,18,6,19,0.41
2013-9-19,75.9,74.9,73.4,71.8,70.9,70.2,90,88,87,29.76,29.75,9,3,10,0.00
2013-9-20,55.0,53.3,51.8,48.6,47.6,46.6,83,81,79,29.99,29.99,8,1,9,0.00
2013-9-21,77.5,61.2,42.4,55.1,48.8,41.9,100,68,39,30.02,29.88,8,0,9,0.00
2013-9-22,81.5,64.6,49.5,61.0,54.6,48.5,100,73,47,29.95,29.84,15,3,16,0.00
2013-9-23,76.8,67.1,50.5,58.3,54.5,49.8,100,68,48,29.93,29.84,17,8,18,0.00
2013-9-24,76.5,56.9,55.8,55.3,54.0,52.9,93,91,48,29.84,29.82,13,2,13,0.00
2013-9-25,79.5,65.6,51.4,62.6,58.0,50.9,100,79,55,29.93,29.81,12,2,13,0.00
2013-9-26,84.9,71.0,57.4,67.3,62.8,57.4,100,78,51,29.90,29.82,20,6,20,0.00
2013-9-27,88.0,75.3,64.9,68.3,64.9,61.9,98,73,48,29.93,29.82,23,8,25,0.00
2013-9-28,71.1,63.2,49.6,67.4,58.4,47.1,97,85,61,30.03,29.74,18,5,20,0.08
2013-9-29,77.7,61.5,44.6,55.8,48.8,44.0,100,68,35,30.04,29.89,16,4,18,0.00
2013-9-30,79.7,64.0,49.1,58.5,52.4,47.1,100,69,41,29.91,29.71,19,5,20,0.00
2013-10-1,85.6,69.7,54.3,62.6,53.6,45.8,94,60,33,29.96,29.76,16,1,17,0.00
2013-10-2,86.4,70.5,55.6,68.1,58.1,46.3,90,66,48,30.00,29.84,16,4,17,0.00
2013-10-3,84.9,71.3,61.9,70.8,64.2,60.6,100,81,50,29.84,29.74,9,1,10,0.00
2013-10-4,75.6,68.4,62.2,72.4,66.8,62.1,100,95,83,29.89,29.69,35,6,35,2.49
2013-10-5,68.2,54.8,45.0,63.3,43.9,37.9,87,68,50,29.91,29.76,22,9,23,0.02
2013-10-6,52.7,47.9,42.4,50.8,45.1,37.7,98,90,71,29.91,29.72,17,4,18,0.12
2013-10-7,74.3,61.3,40.1,50.2,45.8,40.0,100,63,35,30.02,29.91,17,6,18,0.00
2013-10-8,73.2,73.2,73.2,46.1,46.1,46.1,38,38,38,29.97,29.97,8,8,8,0.00
2013-10-9,73.2,73.2,73.2,46.1,46.1,46.1,38,38,38,29.97,29.97,8,8,8,0.00